sat.trackr.live / text

‹ back to catalog

STARLINK-5132

NORAD 54007 · 2022-125AV

PAYLOAD ACTIVE UNKNOWN

§ Identity

Operator
Country
US
Launch date
2022-10-05
Launch site
AFWTR
Launch vehicle
Mass (kg)
RCS (m²)

Purposes: comms

External: N2YO · Heavens-Above · Gunter

§ Orbital elements

Epoch: 2026-09-20T22:32:35.566656Z

Period
95.44 min
Inclination
53.1596°
Eccentricity
0.0001323
Mean motion
15.08845997 rev/d
Perigee alt
538.8 km
Apogee alt
540.6 km
Semi-major
6,917.9 km
B*
1.5187e-4
RAAN
56.5906°
Arg perigee
92.9762°
Mean anomaly
267.1381°
Rev number
21,894

§ Raw data

STARLINK-51321 54007U 22125AV  26263.93930054  .00002130  00000+0  15187-3 0  99902 54007  53.1596  56.5906 0001323  92.9762 267.1381 15.08845997218940

JSON: /api/v1/satellites/54007 · /tle

For live sub-satellite position, see the globe view (requires WebGL).

§ Visibility from observer

Set your observer location to see the next 7 days of passes ≥ 10°. The values pass through the URL so the page stays shareable.

No JS? Fill the form by hand. The geolocation button needs JavaScript.